period_start,C,m1,H,J0,J1,J2,J3,J4,J5,JA,JB,JC,JD,JJ,JK,JN,#
2014-04-16 00:00:46,0.12,3.22,0.00,16.70,23.09,25.11,6.18,33.00,1004.57,2052.99,2364.82,2536.18,2705.55,349.91,327.00,30.42,0000 0000 0000 0000 000000
2014-04-16 00:01:46,0.12,3.22,0.00,16.71,23.09,25.09,5.97,32.83,1004.54,2052.99,2364.68,2536.09,2705.28,349.78,326.54,30.43,0000 0000 0000 0000 000000
2014-04-16 00:02:46,0.13,3.22,0.00,16.67,23.10,25.09,5.98,32.83,1004.54,2052.98,2364.34,2536.03,2705.12,349.07,326.24,30.43,0000 0000 0000 0000 000000
2014-04-16 00:03:47,0.10,3.22,0.00,16.60,23.11,25.05,6.09,32.54,1004.51,2052.98,2364.13,2536.01,2705.05,349.76,327.32,30.44,0000 0000 0000 0000 000000
2014-04-16 00:04:47,0.06,3.22,0.00,16.56,23.12,25.04,6.12,32.58,1004.50,2052.99,2364.01,2536.00,2705.01,349.97,327.06,30.45,0000 0000 0000 0000 000000
2014-04-16 00:05:47,0.03,3.22,0.00,16.56,23.12,25.03,6.13,32.54,1004.50,2052.97,2363.80,2535.96,2704.96,349.34,326.61,30.45,0000 0000 0000 0000 000000
2014-04-16 00:06:48,0.08,3.22,0.00,16.57,23.12,25.04,6.02,32.54,1004.49,2052.96,2363.57,2535.76,2704.84,349.36,326.84,30.46,0000 0000 0000 0000 000000
2014-04-16 00:07:48,0.18,3.23,0.00,16.59,23.12,25.06,6.13,32.63,1004.44,2052.98,2363.25,2535.42,2704.52,350.15,327.18,30.46,0000 0000 0000 0000 000000
2014-04-16 00:08:48,0.21,3.23,0.00,16.62,23.12,25.05,6.14,32.83,1004.45,2052.99,2363.09,2535.19,2704.22,350.57,327.27,30.47,0000 0000 0000 0000 000000
2014-04-16 00:09:48,0.16,3.23,0.00,16.65,23.13,25.06,6.13,32.79,1004.43,2052.95,2363.02,2535.07,2704.08,349.92,327.02,30.48,0000 0000 0000 0000 000000
2014-04-16 00:10:49,0.04,3.23,0.00,16.68,23.14,25.07,6.28,32.75,1004.42,2052.93,2362.97,2535.02,2704.03,350.64,327.66,30.48,0000 0000 0000 0000 000000
2014-04-16 00:11:49,0.03,3.23,0.00,16.69,23.14,25.10,6.10,32.75,1004.42,2052.96,2362.94,2535.01,2704.01,349.89,326.94,30.49,0000 0000 0000 0000 000000
2014-04-16 00:12:49,0.03,3.23,0.00,16.71,23.14,25.11,6.14,32.75,1004.41,2052.95,2362.64,2534.98,2704.00,349.62,326.66,30.49,0000 0000 0000 0000 000000
2014-04-16 00:13:50,0.08,3.23,0.00,16.72,23.14,25.10,5.82,32.58,1004.41,2052.96,2362.25,2534.83,2703.88,348.96,326.05,30.50,0000 0000 0000 0000 000000
2014-04-16 00:14:50,0.15,3.23,0.00,16.73,23.15,25.12,5.98,32.67,1004.41,2052.95,2362.09,2534.55,2703.53,349.82,326.83,30.50,0000 0000 0000 0000 000000
2014-04-16 00:15:50,0.19,3.23,0.00,16.75,23.15,25.11,6.30,32.63,1004.41,2052.93,2361.97,2534.24,2703.24,350.56,327.50,30.51,0000 0000 0000 0000 000000
2014-04-16 00:16:51,0.17,3.23,0.00,16.76,23.16,25.15,6.33,32.67,1004.41,2052.93,2361.70,2534.08,2703.08,351.24,328.13,30.52,0000 0000 0000 0000 000000
2014-04-16 00:17:51,0.13,3.23,0.00,16.74,23.17,25.27,5.95,32.54,1004.41,2052.95,2361.46,2534.03,2703.03,349.26,326.30,30.52,0000 0000 0000 0000 000000
2014-04-16 00:18:51,0.10,3.23,0.00,16.74,23.17,25.20,6.21,32.67,1004.41,2052.95,2361.18,2534.01,2703.00,350.79,327.76,30.53,0000 0000 0000 0000 000000
2014-04-16 00:19:52,0.05,3.23,0.00,16.74,23.17,25.17,6.08,32.54,1004.41,2052.93,2361.07,2534.00,2702.98,350.25,327.22,30.53,0000 0000 0000 0000 000000
2014-04-16 00:20:52,0.01,3.23,0.00,16.74,23.17,25.17,5.99,32.54,1004.41,2052.89,2361.03,2533.99,2702.95,349.73,326.73,30.54,0000 0000 0000 0000 000000
2014-04-16 00:21:52,0.01,3.23,0.00,16.70,23.17,25.16,6.08,32.83,1004.41,2052.86,2360.93,2533.92,2702.69,349.79,326.84,30.55,0000 0000 0000 0000 000000
2014-04-16 00:22:52,0.04,3.23,0.00,16.66,23.18,25.17,6.27,32.71,1004.41,2052.83,2360.76,2533.65,2702.36,351.16,327.81,30.55,0000 0000 0000 0000 000000
2014-04-16 00:23:53,0.19,3.24,0.00,16.65,23.19,25.14,5.93,32.63,1004.38,2052.86,2360.47,2533.32,2702.14,349.35,326.48,30.56,0000 0000 0000 0000 000000
2014-04-16 00:24:53,0.21,3.24,0.00,16.66,23.19,25.14,6.03,32.71,1004.38,2052.83,2360.23,2533.14,2702.05,350.53,327.59,30.56,0000 0000 0000 0000 000000
2014-04-16 00:25:53,0.07,3.24,0.00,16.67,23.19,25.15,6.22,32.79,1004.33,2052.79,2360.13,2533.06,2702.02,350.10,327.17,30.57,0000 0000 0000 0000 000000
2014-04-16 00:26:53,0.04,3.24,0.00,16.70,23.19,25.13,6.06,32.58,1004.24,2052.69,2360.05,2533.02,2702.00,349.26,326.54,30.58,0000 0000 0000 0000 000000
2014-04-16 00:27:54,-0.02,3.24,0.00,16.74,23.20,25.14,5.95,32.67,1004.16,2052.69,2359.97,2533.00,2701.99,349.29,326.85,30.58,0000 0000 0000 0000 000000
2014-04-16 00:28:54,-0.03,3.24,0.00,16.77,23.21,25.13,6.25,32.88,1004.08,2052.51,2359.62,2532.98,2701.82,350.20,327.04,30.59,0000 0000 0000 0000 000000
2014-04-16 00:29:54,-0.03,3.24,0.00,16.78,23.21,25.12,6.16,32.92,1004.01,2052.43,2359.24,2532.85,2701.44,350.29,327.09,30.59,0000 0000 0000 0000 000000
2014-04-16 00:30:54,0.17,3.24,0.00,16.77,23.22,25.13,6.13,33.00,1003.99,2052.32,2359.09,2532.49,2701.18,349.49,326.34,30.60,0000 0000 0000 0000 000000
2014-04-16 00:31:55,0.10,3.24,0.00,16.78,23.22,25.12,6.03,32.79,1003.98,2052.28,2359.03,2532.21,2701.07,349.71,326.52,30.60,0000 0000 0000 0000 000000
2014-04-16 00:32:55,0.03,3.24,0.00,16.79,23.22,25.13,6.12,32.75,1003.97,2052.22,2358.95,2532.08,2701.02,349.98,326.77,30.61,0000 0000 0000 0000 000000
2014-04-16 00:33:55,0.05,3.24,0.00,16.79,23.22,25.16,6.28,32.92,1003.95,2052.26,2358.76,2532.04,2700.99,351.19,327.89,30.62,0000 0000 0000 0000 000000
2014-04-16 00:34:55,0.08,3.24,0.00,16.81,23.22,25.18,6.29,32.83,1003.95,2052.26,2358.53,2532.01,2700.95,351.30,327.98,30.62,0000 0000 0000 0000 000000
2014-04-16 00:35:55,0.04,3.24,0.00,16.80,23.23,25.14,6.10,32.63,1003.93,2052.16,2358.31,2532.00,2700.93,350.88,327.10,30.63,0000 0000 0000 0000 000000
2014-04-16 00:36:56,-0.03,3.24,0.00,16.80,23.24,25.15,6.06,32.58,1003.93,2052.15,2358.14,2531.98,2700.68,350.02,326.79,30.63,0000 0000 0000 0000 000000
2014-04-16 00:37:56,0.14,3.24,0.00,16.79,23.24,25.17,6.02,32.83,1003.92,2052.18,2358.04,2531.97,2700.37,349.21,326.37,30.64,0000 0000 0000 0000 000000
2014-04-16 00:38:56,0.08,3.24,0.00,16.81,23.24,25.20,6.11,32.83,1003.92,2052.17,2358.00,2531.79,2700.14,350.44,327.21,30.65,0000 0000 0000 0000 000000
2014-04-16 00:39:56,0.08,3.24,0.00,16.83,23.24,25.19,6.07,32.71,1003.92,2052.09,2357.75,2531.38,2700.05,349.96,326.89,30.65,0000 0000 0000 0000 000000
2014-04-16 00:40:56,0.17,3.24,0.00,16.80,23.24,25.17,5.97,32.63,1003.92,2052.10,2357.34,2531.16,2700.01,350.07,326.83,30.66,0000 0000 0000 0000 000000
2014-04-16 00:41:57,0.18,3.24,0.00,16.74,23.25,25.15,6.28,32.88,1003.92,2052.10,2357.14,2531.06,2700.00,350.56,327.55,30.66,0000 0000 0000 0000 000000
2014-04-16 00:42:57,0.03,3.24,0.00,16.70,23.26,25.12,6.12,32.88,1003.92,2052.05,2357.06,2531.02,2699.96,349.91,327.14,30.67,0000 0000 0000 0000 000000
2014-04-16 00:43:57,0.01,3.24,0.00,16.71,23.27,25.11,6.21,32.75,1003.92,2052.04,2357.02,2531.00,2699.72,349.93,326.80,30.68,0000 0000 0000 0000 000000
2014-04-16 00:44:57,0.04,3.24,0.00,16.73,23.27,25.14,6.17,32.83,1003.92,2052.03,2356.97,2531.00,2699.34,349.94,327.22,30.68,0000 0000 0000 0000 000000
2014-04-16 00:45:57,0.06,3.24,0.00,16.74,23.27,25.15,6.13,32.79,1003.89,2052.03,2356.51,2530.83,2699.15,350.21,327.01,30.69,0000 0000 0000 0000 000000
2014-04-16 00:46:58,0.24,3.25,0.00,16.76,23.27,25.16,6.08,32.67,1003.81,2052.07,2356.18,2530.63,2699.05,350.41,327.15,30.69,0000 0000 0000 0000 000000
2014-04-16 00:47:58,0.16,3.25,0.00,16.80,23.27,25.16,6.21,32.71,1003.77,2052.11,2356.07,2530.33,2699.01,350.55,326.99,30.70,0000 0000 0000 0000 000000
2014-04-16 00:48:58,0.16,3.25,0.00,16.82,23.29,25.22,6.06,32.63,1003.62,2052.13,2356.01,2530.12,2699.00,349.88,326.77,30.70,0000 0000 0000 0000 000000
2014-04-16 00:49:58,0.09,3.25,0.00,16.84,23.29,25.20,6.21,32.79,1003.51,2052.12,2355.85,2530.04,2698.99,350.41,326.84,30.71,0000 0000 0000 0000 000000
2014-04-16 00:50:59,0.05,3.25,0.00,16.85,23.29,25.20,6.06,32.75,1003.45,2052.07,2355.55,2530.01,2698.86,349.17,325.77,30.72,0000 0000 0000 0000 000000
2014-04-16 00:51:59,0.09,3.25,0.00,16.87,23.29,25.23,6.27,32.88,1003.44,2052.05,2355.30,2529.99,2698.50,351.28,327.72,30.72,0000 0000 0000 0000 000000
2014-04-16 00:52:59,0.09,3.25,0.00,16.87,23.29,25.21,6.17,32.71,1003.43,2052.03,2355.13,2529.96,2698.20,350.27,326.78,30.73,0000 0000 0000 0000 000000
2014-04-16 00:53:59,0.09,3.25,0.00,16.87,23.30,25.23,6.13,32.75,1003.43,2052.04,2355.05,2529.91,2698.08,349.45,326.01,30.73,0000 0000 0000 0000 000000
2014-04-16 00:55:00,0.05,3.25,0.00,16.88,23.30,25.24,5.99,32.88,1003.43,2052.04,2355.01,2529.84,2698.03,349.09,325.67,30.74,0000 0000 0000 0000 000000
2014-04-16 00:56:00,0.06,3.25,0.00,16.90,23.31,25.24,5.97,32.63,1003.43,2052.03,2354.96,2529.51,2698.01,349.41,325.94,30.75,0000 0000 0000 0000 000000
2014-04-16 00:57:00,0.11,3.25,0.00,16.89,23.32,25.27,5.98,32.79,1003.43,2052.02,2354.79,2529.23,2698.00,349.83,326.34,30.75,0000 0000 0000 0000 000000
2014-04-16 00:58:00,0.12,3.25,0.00,16.87,23.32,25.28,6.20,32.67,1003.43,2052.03,2354.81,2529.08,2697.99,349.59,326.14,30.76,0000 0000 0000 0000 000000
2014-04-16 00:59:01,0.05,3.25,0.00,16.80,23.32,25.25,5.95,32.67,1003.43,2052.04,2354.54,2529.03,2697.90,349.76,326.37,30.76,0000 0000 0000 0000 000000
2014-04-16 01:00:01,0.10,3.25,0.00,16.76,23.32,25.20,6.18,32.79,1003.43,2052.05,2354.22,2529.01,2697.71,350.45,326.67,30.77,0000 0000 0000 0000 000000
2014-04-16 01:01:01,0.11,3.25,0.00,16.74,23.32,25.17,6.11,32.58,1003.43,2052.03,2354.08,2529.00,2697.45,350.10,326.78,30.77,0000 0000 0000 0000 000000
2014-04-16 01:02:02,0.07,3.25,0.00,16.73,23.32,25.16,6.01,32.71,1003.43,2052.03,2353.99,2529.00,2697.19,349.32,326.05,30.78,0000 0000 0000 0000 000000
2014-04-16 01:03:02,0.08,3.25,0.00,16.73,23.34,25.21,6.07,32.79,1003.43,2052.04,2353.76,2528.99,2697.07,350.28,326.94,30.79,0000 0000 0000 0000 000000
2014-04-16 01:04:02,0.08,3.26,0.00,16.75,23.34,25.20,6.25,33.00,1003.43,2052.03,2353.43,2528.83,2697.02,350.36,327.19,30.79,0000 0000 0000 0000 000000
2014-04-16 01:05:02,0.12,3.26,0.00,16.77,23.34,25.21,6.28,32.88,1003.43,2052.03,2353.18,2528.51,2697.01,350.90,327.48,30.80,0000 0000 0000 0000 000000
2014-04-16 01:06:03,0.16,3.26,0.00,16.79,23.34,25.22,6.08,32.88,1003.43,2052.02,2353.07,2528.22,2696.99,350.24,326.85,30.80,0000 0000 0000 0000 000000
2014-04-16 01:07:03,0.11,3.26,0.00,16.83,23.34,25.21,6.01,32.79,1003.43,2052.01,2353.02,2528.10,2696.95,349.08,326.07,30.81,0000 0000 0000 0000 000000
2014-04-16 01:08:03,0.03,3.26,0.00,16.86,23.35,25.23,6.03,32.75,1003.43,2052.00,2352.99,2528.04,2696.59,349.71,325.99,30.82,0000 0000 0000 0000 000000
2014-04-16 01:09:03,0.09,3.26,0.00,16.89,23.35,25.30,6.25,32.75,1003.43,2052.00,2352.77,2528.01,2696.27,350.04,326.54,30.82,0000 0000 0000 0000 000000
2014-04-16 01:10:04,0.12,3.26,0.00,16.90,23.36,25.36,6.22,33.00,1003.43,2052.00,2352.50,2528.00,2696.11,349.82,325.80,30.83,0000 0000 0000 0000 000000
2014-04-16 01:11:04,0.09,3.26,0.00,16.91,23.37,25.40,6.12,32.83,1003.43,2052.01,2352.33,2528.00,2696.05,349.92,326.41,30.83,0000 0000 0000 0000 000000
2014-04-16 01:12:04,0.03,3.26,0.00,16.92,23.37,25.36,5.99,32.75,1003.43,2052.00,2352.16,2527.97,2696.02,349.87,326.55,30.84,0000 0000 0000 0000 000000
2014-04-16 01:13:05,0.05,3.26,0.00,16.92,23.37,25.34,6.05,32.63,1003.43,2052.01,2352.05,2527.88,2696.00,349.35,325.86,30.85,0000 0000 0000 0000 000000
2014-04-16 01:14:05,0.06,3.26,0.00,16.92,23.37,25.32,6.25,32.96,1003.42,2052.02,2352.00,2527.52,2695.96,350.67,327.08,30.85,0000 0000 0000 0000 000000
2014-04-16 01:15:05,0.15,3.26,0.00,16.88,23.37,25.28,6.18,32.88,1003.38,2052.01,2351.96,2527.29,2695.91,349.80,326.31,30.86,0000 0000 0000 0000 000000
2014-04-16 01:16:05,0.09,3.26,0.00,16.85,23.37,25.27,6.13,32.88,1003.37,2052.01,2351.93,2527.14,2695.76,350.53,327.39,30.86,0000 0000 0000 0000 000000
2014-04-16 01:17:06,0.06,3.26,0.00,16.83,23.38,25.26,6.13,32.79,1003.29,2052.00,2351.67,2527.08,2695.38,349.98,326.51,30.87,0000 0000 0000 0000 000000
2014-04-16 01:18:06,0.18,3.26,0.00,16.84,23.39,25.23,6.26,32.75,1003.31,2052.01,2351.26,2527.03,2695.15,350.57,327.05,30.87,0000 0000 0000 0000 000000
2014-04-16 01:19:06,0.14,3.26,0.00,16.85,23.39,25.22,6.33,32.92,1003.39,2052.02,2351.11,2527.01,2695.06,351.13,327.59,30.88,0000 0000 0000 0000 000000
2014-04-16 01:20:06,0.04,3.26,0.00,16.86,23.39,25.22,6.32,32.83,1003.27,2052.02,2351.03,2526.98,2695.02,350.71,327.15,30.89,0000 0000 0000 0000 000000
2014-04-16 01:21:06,0.04,3.27,0.00,16.88,23.39,25.21,5.94,32.71,1003.28,2052.02,2350.98,2526.96,2695.00,349.00,325.53,30.89,0000 0000 0000 0000 000000
2014-04-16 01:22:06,0.01,3.27,0.00,16.90,23.40,25.27,6.12,32.67,1003.28,2052.01,2350.98,2526.80,2695.00,350.02,326.45,30.90,0000 0000 0000 0000 000000
2014-04-16 01:23:06,0.05,3.27,0.00,16.93,23.41,25.27,6.08,32.79,1003.23,2052.00,2350.71,2526.39,2694.95,350.17,326.55,30.90,0000 0000 0000 0000 000000
2014-04-16 01:24:07,0.21,3.27,0.00,16.94,23.42,25.26,6.13,32.67,1003.19,2052.01,2350.30,2526.15,2694.63,349.91,326.44,30.91,0000 0000 0000 0000 000000
2014-04-16 01:25:07,0.25,3.27,0.00,16.94,23.42,25.25,6.04,32.58,1003.28,2052.00,2350.11,2526.05,2694.32,349.81,325.86,30.92,0000 0000 0000 0000 000000
2014-04-16 01:26:07,0.10,3.27,0.00,16.97,23.42,25.27,6.14,32.67,1003.24,2052.00,2350.04,2526.02,2694.16,349.62,325.99,30.92,0000 0000 0000 0000 000000
2014-04-16 01:27:07,0.04,3.27,0.00,16.97,23.42,25.30,6.08,32.50,1003.13,2052.00,2350.01,2526.00,2694.07,349.93,326.24,30.93,0000 0000 0000 0000 000000
2014-04-16 01:28:07,0.02,3.27,0.00,16.97,23.42,25.24,6.03,32.63,1003.01,2052.00,2349.97,2526.00,2694.02,350.10,326.55,30.93,0000 0000 0000 0000 000000
2014-04-16 01:29:08,0.01,3.27,0.00,16.98,23.42,25.28,6.08,32.67,1002.97,2052.00,2349.89,2525.99,2694.01,349.57,325.55,30.94,0000 0000 0000 0000 000000
2014-04-16 01:30:08,0.03,3.27,0.00,16.98,23.43,25.31,5.94,32.67,1002.95,2052.01,2349.71,2525.93,2693.99,348.92,325.57,30.94,0000 0000 0000 0000 000000
2014-04-16 01:31:08,0.08,3.27,0.00,16.99,23.44,25.32,5.93,32.71,1002.94,2052.00,2349.28,2525.66,2693.99,349.57,325.44,30.95,0000 0000 0000 0000 000000
2014-04-16 01:32:08,0.19,3.27,0.00,16.99,23.44,25.31,6.11,32.71,1002.95,2052.00,2349.10,2525.32,2693.76,350.10,326.33,30.96,0000 0000 0000 0000 000000
2014-04-16 01:33:08,0.20,3.27,0.00,16.99,23.45,25.32,6.13,32.75,1002.94,2052.00,2349.03,2525.12,2693.39,350.28,326.58,30.96,0000 0000 0000 0000 000000
2014-04-16 01:34:09,0.13,3.27,0.00,16.98,23.45,25.31,6.06,32.71,1002.94,2052.00,2349.01,2525.06,2693.19,349.32,325.61,30.97,0000 0000 0000 0000 000000
2014-04-16 01:35:09,0.05,3.27,0.00,16.97,23.45,25.33,6.19,32.54,1002.94,2052.00,2348.93,2525.02,2693.07,350.64,326.84,30.97,0000 0000 0000 0000 000000
2014-04-16 01:36:09,0.04,3.27,0.00,16.97,23.45,25.33,6.17,32.29,1002.94,2052.00,2348.55,2525.01,2693.02,349.94,326.19,30.98,0000 0000 0000 0000 000000
2014-04-16 01:37:10,0.12,3.27,0.00,16.98,23.46,25.30,6.05,32.71,1002.94,2052.00,2348.21,2524.98,2692.98,349.49,325.76,30.99,0000 0000 0000 0000 000000
2014-04-16 01:38:10,0.09,3.27,0.00,16.95,23.47,25.29,6.12,32.58,1002.94,2052.00,2348.07,2524.90,2692.96,349.97,326.24,30.99,0000 0000 0000 0000 000000
2014-04-16 01:39:10,0.05,3.28,0.00,16.90,23.47,25.28,6.19,32.54,1002.94,2052.00,2347.90,2524.63,2692.85,350.10,326.53,31.00,0000 0000 0000 0000 000000
2014-04-16 01:40:10,0.18,3.28,0.00,16.87,23.47,25.26,6.13,32.63,1002.92,2052.00,2347.46,2524.26,2692.49,349.71,325.85,31.00,0000 0000 0000 0000 000000
2014-04-16 01:41:11,0.29,3.28,0.00,16.88,23.47,25.28,6.04,32.67,1002.83,2052.00,2347.17,2524.10,2692.21,349.65,326.00,31.01,0000 0000 0000 0000 000000
2014-04-16 01:42:11,0.15,3.28,0.00,16.90,23.47,25.26,6.23,32.67,1002.78,2052.00,2347.06,2524.04,2692.08,351.01,327.22,31.01,0000 0000 0000 0000 000000
2014-04-16 01:43:11,0.06,3.28,0.00,16.94,23.48,25.31,6.15,32.71,1002.77,2052.00,2347.00,2524.01,2692.03,349.78,326.12,31.02,0000 0000 0000 0000 000000
2014-04-16 01:44:11,0.03,3.28,0.00,16.97,23.49,25.29,6.13,32.75,1002.74,2052.00,2346.89,2523.99,2692.01,349.57,325.53,31.03,0000 0000 0000 0000 000000
2014-04-16 01:45:12,0.03,3.28,0.00,17.01,23.49,25.25,6.08,32.58,1002.76,2052.01,2346.63,2523.99,2691.99,349.59,325.80,31.03,0000 0000 0000 0000 000000
2014-04-16 01:46:12,0.06,3.28,0.00,17.04,23.50,25.28,6.07,32.75,1002.77,2052.00,2346.32,2523.96,2691.96,349.60,325.75,31.04,0000 0000 0000 0000 000000
2014-04-16 01:47:12,0.08,3.28,0.00,17.03,23.50,25.28,6.03,32.54,1002.79,2052.00,2346.11,2523.79,2691.81,349.26,325.45,31.04,0000 0000 0000 0000 000000
2014-04-16 01:48:12,0.13,3.28,0.00,17.03,23.50,25.29,6.23,32.50,1002.72,2052.00,2346.04,2523.42,2691.41,350.46,326.77,31.05,0000 0000 0000 0000 000000
2014-04-16 01:49:12,0.23,3.28,0.00,17.06,23.50,25.31,6.11,32.58,1002.68,2052.00,2346.01,2523.20,2691.20,349.64,326.19,31.06,0000 0000 0000 0000 000000
2014-04-16 01:50:13,0.10,3.28,0.00,17.07,23.51,25.33,6.05,32.50,1002.57,2052.00,2345.99,2523.12,2691.10,350.29,326.29,31.06,0000 0000 0000 0000 000000
2014-04-16 01:51:13,0.04,3.28,0.00,17.06,23.52,25.30,6.07,32.42,1002.53,2052.00,2345.92,2523.05,2691.04,349.72,325.76,31.07,0000 0000 0000 0000 000000
2014-04-16 01:52:13,0.04,3.28,0.00,17.06,23.52,25.30,6.17,32.58,1002.51,2052.00,2345.50,2523.01,2691.01,350.49,326.28,31.07,0000 0000 0000 0000 000000
2014-04-16 01:53:13,0.12,3.28,0.00,17.08,23.52,25.32,6.11,32.63,1002.48,2052.00,2345.21,2523.00,2690.98,350.70,326.77,31.08,0000 0000 0000 0000 000000
2014-04-16 01:54:14,0.06,3.29,0.00,17.11,23.52,25.37,6.20,32.63,1002.52,2052.00,2345.08,2523.00,2690.98,350.10,326.06,31.09,0000 0000 0000 0000 000000
2014-04-16 01:55:14,0.02,3.29,0.00,17.09,23.52,25.34,6.08,32.58,1002.50,2052.00,2345.04,2522.99,2690.96,349.55,325.55,31.09,0000 0000 0000 0000 000000
2014-04-16 01:56:14,0.03,3.29,0.00,17.11,23.52,25.34,5.98,32.79,1002.48,2052.00,2345.03,2522.90,2690.80,348.91,324.93,31.10,0000 0000 0000 0000 000000
2014-04-16 01:57:14,0.07,3.29,0.00,17.12,23.54,25.38,5.88,32.63,1002.47,2052.00,2345.00,2522.60,2690.46,349.24,325.22,31.10,0000 0000 0000 0000 000000
2014-04-16 01:58:14,0.18,3.29,0.00,17.11,23.54,25.40,5.98,32.75,1002.47,2051.99,2344.88,2522.26,2690.19,350.89,326.76,31.11,0000 0000 0000 0000 000000
2014-04-16 01:59:15,0.16,3.29,0.00,17.08,23.55,25.36,6.08,32.67,1002.47,2051.99,2344.48,2522.10,2690.07,349.55,325.55,31.11,0000 0000 0000 0000 000000
2014-04-16 02:00:15,0.16,3.29,0.00,17.07,23.55,25.31,6.11,32.67,1002.46,2051.99,2344.21,2522.03,2690.03,350.22,326.26,31.12,0000 0000 0000 0000 000000
2014-04-16 02:01:15,0.08,3.29,0.00,17.07,23.55,25.29,5.99,32.67,1002.47,2051.99,2344.08,2522.01,2690.00,349.34,325.12,31.13,0000 0000 0000 0000 000000
2014-04-16 02:02:16,0.04,3.29,0.00,17.07,23.55,25.34,6.21,32.71,1002.47,2051.99,2344.02,2522.00,2689.98,350.18,326.14,31.13,0000 0000 0000 0000 000000
2014-04-16 02:03:16,0.01,3.29,0.00,17.08,23.55,25.37,6.09,32.54,1002.46,2051.99,2343.99,2521.98,2689.93,350.40,325.91,31.14,0000 0000 0000 0000 000000
2014-04-16 02:04:16,0.03,3.29,0.00,17.10,23.57,25.34,6.07,32.58,1002.46,2051.99,2343.91,2521.92,2689.58,349.43,325.41,31.14,0000 0000 0000 0000 000000
2014-04-16 02:05:17,0.12,3.29,0.00,17.12,23.57,25.36,6.02,32.67,1002.46,2051.99,2343.62,2521.75,2689.28,349.57,325.70,31.15,0000 0000 0000 0000 000000
2014-04-16 02:06:17,0.19,3.29,0.00,17.12,23.57,25.42,6.23,32.75,1002.46,2051.99,2343.24,2521.34,2689.11,350.28,326.16,31.16,0000 0000 0000 0000 000000
2014-04-16 02:07:17,0.24,3.29,0.00,17.12,23.57,25.42,6.05,32.71,1002.46,2051.99,2343.08,2521.14,2689.04,350.40,326.30,31.16,0000 0000 0000 0000 000000
2014-04-16 02:08:17,0.09,3.29,0.00,17.14,23.57,25.38,6.02,32.63,1002.46,2051.99,2343.01,2521.05,2689.01,349.25,325.17,31.17,0000 0000 0000 0000 000000
2014-04-16 02:09:17,0.05,3.29,0.00,17.16,23.58,25.35,6.06,32.63,1002.46,2051.99,2342.90,2521.01,2688.99,349.80,325.37,31.17,0000 0000 0000 0000 000000
2014-04-16 02:10:18,0.05,3.29,0.00,17.19,23.59,25.34,5.96,32.75,1002.46,2051.99,2342.53,2520.99,2688.90,349.52,325.38,31.18,0000 0000 0000 0000 000000
2014-04-16 02:11:18,0.12,3.29,0.00,17.20,23.59,25.42,6.08,32.79,1002.46,2051.99,2342.21,2520.96,2688.59,350.41,326.18,31.18,0000 0000 0000 0000 000000
2014-04-16 02:12:18,0.14,3.30,0.00,17.19,23.60,25.39,6.18,32.67,1002.46,2051.99,2342.08,2520.93,2688.35,350.06,325.70,31.19,0000 0000 0000 0000 000000
2014-04-16 02:13:18,0.08,3.30,0.00,17.19,23.60,25.44,6.12,32.63,1002.44,2051.98,2342.03,2520.65,2688.19,349.33,325.21,31.20,0000 0000 0000 0000 000000
2014-04-16 02:14:19,0.13,3.30,0.00,17.19,23.60,25.46,6.16,32.71,1002.43,2051.99,2341.98,2520.30,2688.08,350.39,326.20,31.20,0000 0000 0000 0000 000000
2014-04-16 02:15:19,0.14,3.30,0.00,17.18,23.60,25.47,6.10,32.67,1002.38,2051.99,2341.88,2520.13,2688.03,350.29,326.10,31.21,0000 0000 0000 0000 000000
2014-04-16 02:16:19,0.09,3.30,0.00,17.15,23.61,25.47,5.94,32.79,1002.39,2051.99,2341.52,2520.05,2688.01,348.88,325.10,31.21,0000 0000 0000 0000 000000
2014-04-16 02:17:19,0.11,3.30,0.00,17.12,23.62,25.47,6.10,32.67,1002.34,2051.99,2341.27,2520.01,2687.97,349.87,325.77,31.22,0000 0000 0000 0000 000000
2014-04-16 02:18:20,0.07,3.30,0.00,17.11,23.62,25.48,6.07,32.67,1002.24,2051.98,2341.11,2520.00,2687.85,350.53,326.36,31.23,0000 0000 0000 0000 000000
2014-04-16 02:19:20,0.06,3.30,0.00,17.12,23.62,25.46,6.08,32.63,1002.08,2051.98,2341.04,2520.00,2687.50,350.24,326.03,31.23,0000 0000 0000 0000 000000
2014-04-16 02:20:20,0.09,3.30,0.00,17.15,23.62,25.48,6.05,32.83,1002.00,2051.98,2340.99,2519.87,2687.21,349.83,325.47,31.24,0000 0000 0000 0000 000000
2014-04-16 02:21:20,0.11,3.30,0.00,17.17,23.62,25.53,6.17,32.54,1002.04,2051.98,2340.93,2519.52,2687.07,349.45,325.22,31.24,0000 0000 0000 0000 000000
2014-04-16 02:22:21,0.14,3.30,0.00,17.17,23.64,25.52,6.02,32.71,1002.06,2051.98,2340.70,2519.24,2687.03,349.59,325.37,31.25,0000 0000 0000 0000 000000
2014-04-16 02:23:21,0.15,3.30,0.00,17.18,23.64,25.53,6.11,32.75,1002.00,2051.99,2340.47,2519.13,2687.01,349.68,325.34,31.26,0000 0000 0000 0000 000000
2014-04-16 02:24:21,0.10,3.30,0.00,17.19,23.65,25.48,6.08,32.71,1002.01,2051.98,2340.24,2519.06,2687.00,350.41,326.33,31.26,0000 0000 0000 0000 000000
2014-04-16 02:25:22,0.07,3.30,0.00,17.22,23.65,25.47,6.00,32.71,1002.00,2051.97,2340.10,2519.01,2686.97,349.52,325.22,31.27,0000 0000 0000 0000 000000
2014-04-16 02:26:22,0.04,3.30,0.00,17.22,23.65,25.50,6.16,32.63,1002.03,2051.98,2340.03,2519.00,2686.91,350.27,325.93,31.27,0000 0000 0000 0000 000000
2014-04-16 02:27:22,0.04,3.30,0.00,17.24,23.65,25.50,6.18,32.63,1002.00,2051.99,2340.00,2518.99,2686.76,350.77,325.88,31.28,0000 0000 0000 0000 000000
2014-04-16 02:28:22,0.04,3.30,0.00,17.26,23.66,25.52,6.05,32.50,1001.99,2051.98,2339.95,2518.97,2686.40,350.04,325.65,31.28,0000 0000 0000 0000 000000
2014-04-16 02:29:23,0.08,3.30,0.00,17.26,23.67,25.50,5.93,32.50,1001.99,2051.99,2339.62,2518.80,2686.16,349.76,325.46,31.29,0000 0000 0000 0000 000000
2014-04-16 02:30:23,0.18,3.31,0.00,17.27,23.67,25.50,6.13,32.71,1001.99,2051.97,2339.27,2518.36,2686.06,350.33,325.92,31.30,0000 0000 0000 0000 000000
2014-04-16 02:31:23,0.22,3.31,0.00,17.25,23.67,25.54,6.20,32.71,1001.99,2051.96,2339.10,2518.15,2686.02,349.96,325.59,31.30,0000 0000 0000 0000 000000
2014-04-16 02:32:24,0.12,3.31,0.00,17.26,23.67,25.56,6.04,32.88,1001.97,2051.98,2339.03,2518.05,2686.00,349.33,324.99,31.31,0000 0000 0000 0000 000000
2014-04-16 02:33:24,0.04,3.31,0.00,17.27,23.67,25.55,6.03,32.67,1001.97,2051.96,2338.98,2518.02,2685.95,349.46,325.09,31.31,0000 0000 0000 0000 000000
2014-04-16 02:34:24,0.02,3.31,0.00,17.28,23.68,25.53,6.12,32.54,1001.97,2051.97,2338.97,2518.00,2685.87,350.55,326.09,31.32,0000 0000 0000 0000 000000
2014-04-16 02:35:24,0.01,3.31,0.00,17.27,23.69,25.58,5.98,32.50,1001.97,2051.98,2338.89,2517.98,2685.74,349.50,325.13,31.33,0000 0000 0000 0000 000000
2014-04-16 02:36:24,0.07,3.31,0.00,17.28,23.70,25.55,6.01,32.50,1001.97,2051.98,2338.52,2517.97,2685.41,349.85,325.44,31.33,0000 0000 0000 0000 000000